Kendall, FL

1:33 PM EDT on October 18, 2017 (GMT -0400)
Kendall-Tamiami Executive

Weather History for KTMB - June, 2014

Change the Weather History Date:

Tuesday, June 10, 2014

  Actual Average Record
Temperature  
Mean Temperature 80 °F -  
Max Temperature 87 °F 85 °F 95 °F (2001)
Min Temperature 73 °F 71 °F 66 °F (2007)
Cooling Degree Days 14    
Growing Degree Days 30 (Base 50)    
Moisture  
Dew Point 72 °F    
Average Humidity 79    
Maximum Humidity 94    
Minimum Humidity 59    
Precipitation  
Precipitation 0.13 in - - ()
Sea Level Pressure  
Sea Level Pressure 30.03 in    
Wind  
Wind Speed 3 mph (SE)    
Max Wind Speed 17 mph    
Max Gust Speed 22 mph    
Visibility 8 miles    
Events Rain , Thunderstorm    
Averages and records for this station are not official NWS values.
T = Trace of Precipitation, MM = Missing Value Source: NWS Daily Summary

Daily Weather History Graph

Daily Weather History Graph

Search for Another Location

Airport or City:

Trip Planner

Search our weather history database for the weather conditions in past years. The results will help you decide how hot, cold, wet, or windy it might be!

Date:

Astronomy

Jun. 10, 2014 Rise Set
Actual Time 6:29 AM EDT 8:12 PM EDT
Civil Twilight 6:04 AM EDT 8:38 PM EDT
Nautical Twilight 5:32 AM EDT 9:09 PM EDT
Astronomical Twilight 5:00 AM EDT 9:42 PM EDT
Moon 5:48 PM EDT (6/10) 4:19 AM EDT (6/10)
Length of Visible Light 14h 34m
Length of Day
13h 42m
Waxing Gibbous, 92% of the Moon is Illuminated
Jun 10
Waxing Gibbous
Jun 13
Full
Jun 19
Last Quarter
Jun 27
New
Jul 5
First Quarter

Hourly Weather History & Observations

Time (EDT) Temp. Heat Index Dew Point Humidity Pressure Visibility Wind Dir Wind Speed Gust Speed Precip Events Conditions
12:53 AM 75.0 °F - 72.0 °F 90% 30.01 in 10.0 mi Calm Calm - N/A   Clear
1:53 AM 75.9 °F - 72.0 °F 87% 30.00 in 10.0 mi Calm Calm - N/A   Clear
2:53 AM 77.0 °F - 72.0 °F 84% 29.99 in 10.0 mi Calm Calm - N/A   Clear
3:53 AM 75.9 °F - 72.0 °F 87% 29.98 in 10.0 mi Calm Calm - N/A   Clear
4:53 AM 77.0 °F - 72.0 °F 84% 29.98 in 10.0 mi Calm Calm - N/A   Clear
5:53 AM 77.0 °F - 72.0 °F 84% 29.99 in 10.0 mi Calm Calm - N/A   Clear
6:31 AM 75.9 °F - 73.0 °F 91% 30.00 in 10.0 mi Calm Calm - N/A   Mostly Cloudy
6:53 AM 75.9 °F - 73.9 °F 94% 30.00 in 10.0 mi Calm Calm - N/A   Mostly Cloudy
7:53 AM 82.0 °F 87.9 °F 73.9 °F 76% 30.01 in 10.0 mi NNE 3.5 mph - N/A   Clear
8:53 AM 86.0 °F 93.8 °F 73.9 °F 67% 30.02 in 10.0 mi Calm Calm - N/A   Clear
9:19 AM 86.0 °F 95.1 °F 75.0 °F 70% 30.03 in 10.0 mi South 4.6 mph - N/A Thunderstorm Mostly Cloudy
9:49 AM 84.2 °F 92.3 °F 75.2 °F 74% 30.03 in 10.0 mi WNW 5.8 mph - N/A Thunderstorm Thunderstorm
9:53 AM 84.9 °F 93.3 °F 75.0 °F 72% 30.03 in 10.0 mi WNW 5.8 mph - N/A Thunderstorm Thunderstorm
10:06 AM 82.0 °F 88.6 °F 75.0 °F 79% 30.03 in 1.8 mi North - - 0.13 in Rain , Thunderstorm Thunderstorms and Rain
10:16 AM 77.0 °F - 71.1 °F 82% 30.04 in 0.5 mi SSE 8.1 mph 19.6 mph 0.84 in Rain , Thunderstorm Heavy Thunderstorms and Rain
10:19 AM 78.1 °F - 71.1 °F 79% 30.03 in 0.2 mi SSE 5.8 mph 19.6 mph 1.07 in Rain , Thunderstorm Heavy Thunderstorms and Rain
10:40 AM 73.0 °F - 68.0 °F 84% 30.07 in 0.5 mi East 16.1 mph 21.9 mph 2.45 in Rain , Thunderstorm Heavy Thunderstorms and Rain
10:51 AM 73.4 °F - 68.0 °F 83% 30.06 in 1.0 mi East 11.5 mph - 2.83 in Rain , Thunderstorm Heavy Thunderstorms and Rain
10:53 AM 73.4 °F - 68.0 °F 83% 30.06 in 1.0 mi ENE 10.4 mph - N/A Rain , Thunderstorm Heavy Thunderstorms and Rain
11:00 AM 73.0 °F - 68.0 °F 84% 30.06 in 2.0 mi East 6.9 mph - 0.07 in Rain , Thunderstorm Heavy Thunderstorms and Rain
11:10 AM 73.0 °F - 69.1 °F 87% 30.05 in 5.0 mi SE 4.6 mph - 0.10 in Rain , Thunderstorm Light Rain
11:20 AM 73.9 °F - 69.1 °F 85% 30.06 in 10.0 mi South 4.6 mph - 0.10 in Rain , Thunderstorm Light Thunderstorms and Rain
11:44 AM 73.9 °F - 68.0 °F 82% 30.06 in 10.0 mi South 8.1 mph - 0.11 in Rain , Thunderstorm Light Rain
11:53 AM 73.0 °F - 68.0 °F 84% 30.06 in 10.0 mi South 10.4 mph - 0.12 in Rain Light Rain
12:53 PM 73.4 °F - 69.8 °F 88% 30.06 in 8.0 mi SSW 4.6 mph - N/A Rain Light Rain
1:53 PM 82.9 °F 88.0 °F 72.0 °F 69% 30.03 in 10.0 mi Variable 3.5 mph - 0.01 in   Clear
2:53 PM 84.2 °F 88.4 °F 69.8 °F 62% 30.04 in 10.0 mi SW 3.5 mph - N/A   Clear
3:53 PM 84.9 °F 90.7 °F 72.0 °F 65% 30.02 in 10.0 mi East 17.3 mph - N/A   Partly Cloudy
4:53 PM 84.2 °F 89.6 °F 71.6 °F 66% 30.00 in 10.0 mi East 9.2 mph - N/A   Clear
5:53 PM 86.0 °F 90.7 °F 70.0 °F 59% 29.99 in 10.0 mi SE 8.1 mph - N/A   Clear
6:53 PM 84.9 °F 90.7 °F 72.0 °F 65% 29.99 in 10.0 mi East 10.4 mph - N/A   Clear
7:53 PM 82.9 °F 88.8 °F 73.0 °F 72% 30.01 in 10.0 mi ESE 5.8 mph - N/A   Clear
8:53 PM 81.0 °F 86.2 °F 73.9 °F 79% 30.02 in 10.0 mi ESE 4.6 mph - N/A   Clear
9:53 PM 80.1 °F 84.2 °F 73.0 °F 79% 30.02 in 10.0 mi East 3.5 mph - N/A   Clear
10:53 PM 78.8 °F - 73.4 °F 83% 30.04 in 10.0 mi SE 3.5 mph - N/A   Clear
11:53 PM 79.0 °F - 73.0 °F 82% 30.04 in 10.0 mi Calm Calm - N/A   Clear